Tracking 19817 objects as of 17-Aug-2019
HD Live streaming from Space Station
objects crossing your sky now

COSMOS 2251 DEB

Track COSMOS 2251 DEB now!
10-day predictions


NORAD ID: 36076
Int'l Code: 1993-036AYP
Perigee: 645.1 km
Apogee: 705.3 km
Inclination: 73.8 °
Period: 98.1 minutes
Semi major axis: 7046 km
RCS: 0.0146 m2 (small)
Launch date: June 16, 1993
Source: Commonwealth of Independent States (former USSR) (CIS)
Launch site: PLESETSK MISSILE AND SPACE COMPLEX (PKMTR)

Note: This is SATELLITE DEBRIS
aabbcc
Your satellite tracking list
Your tracking list is empty




NASA's NSSDC Master Catalog

Two Line Element Set (TLE):
1 36076U 93036AYP 19228.80479972  .00001507  00000-0  26638-3 0  9992
2 36076  73.8366 284.4886 0042700 247.5505 112.1139 14.67816160528427
Source of the keplerian elements: AFSPC